Theta_e
322 322 323 323 322 321 319 318 317 317 316 318 315 315 318 317 316 315 315 315 315 315 315 313 311 310 309 309 310 309 307 306 305 302 300 298 297 301
322 323 322 322 320 321 319 316 318 316 318 318 317 317 316 316 315 315 316 315 315 314 313 313 310 310 309 309 309 306 303 303 301 300 298 295 295 301
323 324 323 322 322 321 320 317 318 318 317 317 317 316 316 316 316 315 314 314 313 313 313 312 310 309 309 308 307 303 301 301 300 298 296 294 296 299
323 323 323 322 321 321 319 317 318 316 317 317 316 316 315 313 313 312 311 312 312 311 311 310 309 308 308 306 303 302 301 299 298 296 294 294 294 296
323 323 323 323 322 320 319 318 316 316 316 316 316 315 314 313 311 311 311 310 309 309 308 308 307 307 305 303 302 300 299 298 296 295 294 294 294 294
321 323 321 320 320 318 318 317 317 316 315 316 315 314 313 312 312 311 310 308 308 307 306 304 302 301 300 299 298 297 297 296 295 295 295 294 294 294
318 318 318 317 317 317 318 317 316 317 316 315 314 313 312 311 309 307 306 304 304 303 302 300 300 299 298 297 296 296 296 295 295 295 295 294 294 294
318 316 316 316 316 317 317 316 316 315 314 313 312 310 308 306 304 303 302 301 301 299 299 299 298 297 296 296 295 295 294 294 294 294 293 293 292 293
317 317 316 316 316 316 316 315 314 311 309 307 304 303 301 299 297 297 297 298 298 298 297 296 295 295 295 294 294 293 293 292 292 293 293 292 291 292
316 316 315 314 313 312 310 308 304 302 300 298 296 294 294 293 293 293 294 295 295 295 294 293 293 294 293 293 293 293 292 291 290 291 291 291 290 290
314 312 311 305 299 297 296 296 295 295 294 294 294 294 294 293 292 292 293 294 294 294 293 291 290 290 290 291 292 292 291 290 289 290 291 292 291 291
309 301 297 297 298 298 299 298 297 296 295 295 294 294 293 292 292 291 290 291 290 291 290 290 290 290 290 290 289 290 290 289 289 289 289 289 289 289
297 296 297 297 297 297 298 297 296 295 295 294 294 293 293 292 292 291 290 290 290 290 290 289 289 289 289 289 289 289 289 288 288 288 288 288 289 289
299 300 298 297 296 297 297 294 295 295 294 294 294 293 292 291 290 290 290 290 290 289 290 290 290 289 289 289 288 288 288 287 288 288 288 288 288 288
301 301 300 298 296 295 293 293 293 292 292 292 292 291 290 290 289 289 289 289 289 289 289 289 288 288 288 287 287 287 287 287 288 289 289 287 287 287
302 301 299 296 294 294 291 290 290 290 290 290 290 290 290 290 289 289 288 288 288 288 288 288 288 288 287 287 287 288 288 288 288 287 287 286 286 286
301 300 297 295 294 291 290 289 289 289 289 290 291 290 290 289 288 287 287 287 287 287 287 287 287 286 286 286 287 287 286 286 286 286 286 286 285 285
300 299 297 295 291 290 289 289 289 289 290 290 290 289 289 289 287 286 286 286 286 286 285 285 285 286 285 285 285 286 285 285 285 285 286 286 285 285
299 298 296 293 291 290 289 289 290 290 290 290 289 289 288 288 287 285 286 285 285 284 284 284 284 284 284 284 284 284 284 285 285 285 286 286 285 285
299 297 296 293 290 289 289 289 290 290 289 289 289 288 288 287 286 285 284 284 284 283 283 283 283 284 284 284 284 284 284 285 285 285 285 285 285 285
298 296 294 292 290 289 289 289 290 289 289 288 288 287 287 286 286 285 284 284 284 283 282 283 283 283 283 283 284 284 283 283 283 284 285 285 284 284
298 296 293 291 290 289 289 290 290 289 289 288 288 287 286 286 285 285 284 284 283 282 282 282 282 283 283 283 283 283 283 283 283 283 283 283 283 284
297 295 293 291 290 289 290 290 289 289 288 288 287 287 286 286 285 285 284 283 282 282 283 282 282 282 282 282 282 282 283 282 283 283 284 284 284 284
Wind_Speed
8 8 13 23 27 22 23 20 22 19 21 19 16 19 20 18 19 20 19 18 16 16 17 14 13 13 13 14 15 13 11 10 10 10 13 13 8 3
8 9 7 7 10 24 20 21 18 21 17 18 18 17 20 22 22 20 18 18 17 15 16 16 16 16 16 16 16 12 10 9 10 12 13 12 7 4
10 8 11 9 13 16 26 23 17 16 16 16 18 18 18 20 20 19 15 15 16 17 18 19 19 19 18 16 13 9 11 11 12 14 13 11 9 8
9 9 11 13 11 18 23 21 21 11 11 14 14 16 14 13 13 15 16 17 19 21 19 20 20 19 16 13 9 11 11 13 14 14 13 11 10 7
6 12 11 13 19 20 24 22 17 17 13 7 10 13 15 17 17 18 19 19 20 19 17 16 15 13 11 10 10 12 14 15 15 14 12 11 10 12
7 9 8 8 9 18 21 17 18 17 11 14 9 9 12 13 12 10 9 9 8 8 8 5 4 5 6 7 11 14 14 15 14 14 12 11 11 11
8 9 9 9 9 18 15 17 16 12 9 7 5 5 4 4 5 5 4 4 5 6 5 6 7 8 9 11 12 12 11 12 13 14 13 11 12 11
17 18 16 12 16 13 10 8 7 6 6 5 3 4 3 3 4 5 5 5 6 7 6 7 7 8 11 10 9 9 10 12 16 18 16 14 14 11
16 17 17 16 13 11 8 5 3 4 2 0 1 2 3 5 6 7 7 6 7 8 8 9 10 8 7 8 9 12 11 10 11 16 15 15 14 12
16 14 13 14 11 7 6 5 5 3 1 1 1 1 2 3 4 4 4 5 5 5 7 6 6 8 12 11 12 12 10 13 11 11 11 11 12 13
16 14 13 12 11 8 5 5 6 7 7 7 7 6 8 8 7 5 3 3 2 3 7 8 8 9 7 5 3 9 10 13 15 13 12 13 13 13
16 14 11 10 9 9 7 7 7 9 7 7 8 7 8 11 14 13 9 3 4 3 8 10 8 11 6 2 9 11 12 13 12 14 14 13 16 17
15 12 10 8 6 7 8 7 7 8 9 5 7 8 10 12 13 14 11 8 7 5 7 10 9 10 10 14 13 13 13 15 14 14 15 13 11 12
13 10 10 7 6 5 4 6 7 5 3 1 3 5 7 10 11 9 6 6 7 7 9 9 10 12 13 16 17 16 15 14 12 11 9 10 12 12
11 10 9 8 7 6 5 5 4 2 1 3 5 7 9 9 7 8 6 3 4 6 8 11 12 12 13 15 17 17 16 14 9 10 10 14 20 15
9 8 8 9 8 6 6 4 4 3 3 4 6 8 8 5 5 8 10 9 6 6 7 8 9 12 15 12 12 13 10 11 14 12 14 17 15 9
7 8 10 9 8 7 6 6 6 5 5 7 7 6 7 7 8 7 8 9 9 10 11 10 11 11 10 11 10 11 13 14 15 15 12 12 14 11
6 8 9 8 7 7 7 6 6 7 7 8 8 7 8 7 10 9 10 11 12 13 14 12 14 15 14 7 9 12 16 16 15 15 11 12 14 15
5 8 7 7 6 6 6 5 6 6 7 8 8 10 11 11 12 13 12 12 14 15 14 14 15 16 18 19 16 13 15 13 13 12 11 11 14 15
6 6 6 6 4 4 4 5 5 7 8 9 10 12 13 14 15 15 13 14 17 17 18 17 16 14 18 18 18 15 10 13 15 14 12 10 12 11
6 6 6 4 2 3 3 4 5 7 9 10 11 12 12 14 15 16 14 13 15 18 17 17 17 14 14 12 13 15 16 12 11 10 11 13 15 14
6 6 5 2 1 2 3 4 5 7 9 9 10 11 12 13 14 15 15 17 18 16 17 18 17 14 13 16 16 16 15 13 11 9 9 10 12 12
5 5 4 1 2 3 4 4 5 7 7 7 10 11 12 12 13 15 17 18 18 18 18 20 17 15 15 15 14 14 15 17 15 14 10 10 8 6
Wind_Direction
237 230 240 251 241 255 237 227 211 201 218 219 228 235 239 242 252 256 262 260 262 272 275 280 276 276 281 288 296 295 284 287 297 313 323 323 326 349
257 233 236 245 271 249 223 200 206 209 203 209 221 232 241 246 252 258 260 262 264 265 268 266 263 270 275 281 285 281 282 291 301 316 320 316 300 252
249 249 249 251 268 248 225 206 205 204 215 220 226 225 230 236 247 255 252 252 256 260 265 260 262 271 279 278 277 277 283 291 305 313 314 312 301 254
247 257 241 254 249 247 206 197 187 201 224 196 205 219 237 227 258 255 257 258 259 262 263 269 274 276 277 277 273 275 283 298 303 303 303 297 284 285
242 275 273 288 243 230 184 185 186 197 186 237 270 252 249 260 262 264 265 264 261 267 272 274 277 276 277 281 283 286 291 295 297 297 297 293 283 276
241 251 247 255 260 204 187 185 199 206 232 265 251 254 259 261 269 277 277 269 265 267 274 284 288 304 301 285 282 290 297 295 296 296 298 295 285 278
137 138 128 112 187 180 188 192 199 225 255 250 243 245 264 283 292 297 295 280 284 296 298 294 297 303 303 298 299 297 297 301 301 297 299 294 296 297
111 110 106 112 167 170 182 181 198 227 236 230 244 289 289 314 307 295 287 274 287 295 291 286 288 290 288 297 300 299 295 294 290 285 292 293 288 292
115 121 126 130 145 159 166 180 181 152 162 45 339 317 299 288 283 280 277 270 269 267 283 294 286 270 287 290 292 300 305 311 309 278 283 283 294 294
124 127 125 121 116 117 121 130 127 127 126 277 290 356 336 332 315 305 301 275 261 272 307 328 304 268 268 277 283 278 289 307 319 303 301 298 301 300
127 121 118 120 113 107 115 128 126 113 98 85 78 60 49 48 38 354 329 266 240 279 311 336 342 335 332 332 280 277 295 303 306 292 289 285 294 298
128 124 118 111 99 91 85 88 104 92 79 75 67 50 31 15 9 11 11 351 11 346 340 355 348 340 334 292 324 316 305 309 305 296 295 296 290 291
127 123 107 96 88 77 71 72 76 80 81 59 32 15 358 349 346 351 5 21 9 352 331 333 339 335 324 315 318 319 320 317 312 305 306 304 290 292
121 117 111 108 111 115 116 102 122 126 119 75 342 343 336 331 329 336 5 4 348 325 315 307 318 320 320 319 322 322 324 323 311 317 322 326 312 300
108 100 103 117 131 139 100 101 105 130 4 338 350 349 350 353 4 17 339 309 326 329 325 325 324 325 325 323 322 325 325 332 340 302 318 322 323 310
111 114 112 111 111 97 88 78 66 47 19 6 356 348 336 328 19 16 6 4 347 322 317 323 323 324 327 329 325 325 319 324 323 325 324 324 332 321
111 108 112 111 105 92 79 70 60 52 34 27 19 17 23 20 18 16 3 9 346 337 335 332 330 334 331 339 337 338 337 330 321 318 324 337 343 327
107 114 119 108 89 76 70 65 50 41 33 26 24 19 19 21 21 14 18 5 348 341 343 343 341 333 333 342 352 343 336 336 335 331 332 338 344 352
100 104 101 91 74 65 66 60 53 46 29 19 21 26 23 19 18 11 11 6 1 358 356 345 341 342 346 346 341 345 336 337 338 334 333 337 335 346
100 89 96 89 69 60 69 70 62 47 42 30 25 20 20 21 13 9 12 16 1 358 354 353 353 354 345 336 333 343 349 343 338 338 336 332 335 340
101 88 89 82 72 78 85 82 67 52 38 28 25 26 29 25 23 19 18 6 355 357 358 360 353 341 332 333 340 352 352 346 339 333 336 335 340 344
102 82 80 76 88 96 96 88 70 50 35 25 25 25 23 22 17 13 7 352 0 7 1 359 358 2 2 6 2 358 0 10 6 354 329 315 316 322
98 77 62 65 103 112 108 95 70 48 37 27 28 23 21 17 11 8 1 12 16 11 6 2 9 14 15 10 6 9 9 6 7 15 45 43 50 27